When you browse on this site, cookies collect data to enhance your experience and personalize the content and advertising you see.
Visit our Privacy Policy to learn more. By continuing to use the site, you agree to this use of cookies and data.
  • En España
  • Lista de países
  • Para 7 días
  • Temperatura del agua
  • El tiempo en el mapa
  • Informadores
  • user-avatar
    Iniciar sesión

    Tiempo cada hora Preston

    Hoy, 21 Septiembre, Sábado

    Tiempo Temperatura Precipitaciones Viento Presión Humedad
    00:00 +12°C° 0 mm 5 mps 761 mmHg 79%
    01:00 +12°C° 0 mm 5 mps 760 mmHg 79%
    02:00 +12°C° 0 mm 5 mps 760 mmHg 79%
    03:00 +10°C° 0 mm 5 mps 759 mmHg 79%
    04:00 +10°C° 0 mm 5 mps 759 mmHg 80%
    05:00 +10°C° 0 mm 5 mps 758 mmHg 80%
    06:00 +10°C° 0 mm 6 mps 758 mmHg 81%
    07:00 +13°C° 0 mm 6 mps 757 mmHg 76%
    08:00 +14°C° 0 mm 6 mps 757 mmHg 72%
    09:00 +15°C° 0 mm 7 mps 756 mmHg 68%
    10:00 +17°C° 0 mm 7 mps 756 mmHg 64%
    11:00 +18°C° 0 mm 7 mps 756 mmHg 61%
    12:00 +20°C° 0 mm 7 mps 755 mmHg 58%
    13:00 +21°C° 0 mm 7 mps 755 mmHg 58%
    14:00 +21°C° 0 mm 6 mps 754 mmHg 59%
    15:00 +21°C° 0 mm 6 mps 754 mmHg 60%
    16:00 +20°C° 0 mm 6 mps 753 mmHg 62%
    17:00 +19°C° 0 mm 5 mps 753 mmHg 65%
    18:00 +17°C° 0 mm 5 mps 753 mmHg 67%
    19:00 +16°C° 0 mm 5 mps 752 mmHg 68%
    20:00 +16°C° 0 mm 5 mps 752 mmHg 69%
    21:00 +16°C° 0 mm 5 mps 752 mmHg 69%
    22:00 +15°C° 0.3 mm 4 mps 752 mmHg 72%
    23:00 +15°C° 0.3 mm 4 mps 752 mmHg 75%

    Mañana, 22 Septiembre, Domingo

    Tiempo Temperatura Precipitaciones Viento Presión Humedad
    00:00 +15°C° 0.3 mm 4 mps 751 mmHg 78%
    01:00 +15°C° 0.2 mm 4 mps 751 mmHg 79%
    02:00 +16°C° 0.2 mm 3 mps 750 mmHg 80%
    03:00 +16°C° 0.2 mm 3 mps 750 mmHg 82%
    04:00 +15°C° 0.2 mm 4 mps 749 mmHg 83%
    05:00 +15°C° 0.2 mm 4 mps 749 mmHg 84%
    06:00 +15°C° 0.2 mm 4 mps 748 mmHg 85%
    07:00 +17°C° 0 mm 4 mps 748 mmHg 84%
    08:00 +17°C° 0 mm 4 mps 748 mmHg 84%
    09:00 +18°C° 0 mm 4 mps 748 mmHg 83%
    10:00 +19°C° 0.1 mm 5 mps 748 mmHg 81%
    11:00 +20°C° 0.1 mm 5 mps 748 mmHg 79%
    12:00 +22°C° 0.1 mm 5 mps 748 mmHg 77%
    13:00 +20°C° 1.4 mm 4 mps 747 mmHg 82%
    14:00 +18°C° 1.4 mm 3 mps 747 mmHg 86%
    15:00 +16°C° 1.4 mm 2 mps 747 mmHg 91%
    16:00 +16°C° 0.2 mm 2 mps 748 mmHg 90%
    17:00 +16°C° 0.2 mm 3 mps 748 mmHg 89%
    18:00 +16°C° 0.2 mm 3 mps 748 mmHg 88%
    19:00 +16°C° 0 mm 3 mps 748 mmHg 88%
    20:00 +14°C° 0 mm 3 mps 748 mmHg 89%
    21:00 +14°C° 0 mm 3 mps 749 mmHg 89%
    22:00 +13°C° 0 mm 3 mps 749 mmHg 89%
    23:00 +14°C° 0 mm 2 mps 749 mmHg 90%

    Pasado mañana, 23 Septiembre, Lunes

    Tiempo Temperatura Precipitaciones Viento Presión Humedad
    00:00 +14°C° 0 mm 2 mps 749 mmHg 90%
    01:00 +14°C° 0.4 mm 2 mps 749 mmHg 91%
    02:00 +14°C° 0.4 mm 2 mps 750 mmHg 92%
    03:00 +13°C° 0.4 mm 3 mps 750 mmHg 93%
    04:00 +13°C° 0.1 mm 3 mps 750 mmHg 92%
    05:00 +13°C° 0.1 mm 3 mps 750 mmHg 91%
    06:00 +13°C° 0.1 mm 4 mps 750 mmHg 91%
    07:00 +13°C° 0 mm 3 mps 751 mmHg 87%
    08:00 +14°C° 0 mm 3 mps 751 mmHg 83%
    09:00 +16°C° 0 mm 3 mps 751 mmHg 79%
    10:00 +15°C° 0 mm 4 mps 751 mmHg 75%
    11:00 +17°C° 0 mm 4 mps 751 mmHg 70%
    12:00 +17°C° 0 mm 5 mps 751 mmHg 65%
    13:00 +17°C° 0 mm 5 mps 750 mmHg 66%
    14:00 +17°C° 0 mm 6 mps 750 mmHg 66%
    15:00 +17°C° 0 mm 6 mps 749 mmHg 67%
    16:00 +16°C° 0.7 mm 6 mps 749 mmHg 74%
    17:00 +15°C° 0.7 mm 7 mps 748 mmHg 82%
    18:00 +14°C° 0.7 mm 7 mps 748 mmHg 89%
    19:00 +14°C° 0.2 mm 7 mps 748 mmHg 90%
    20:00 +14°C° 0.2 mm 7 mps 747 mmHg 90%
    21:00 +14°C° 0.2 mm 7 mps 747 mmHg 90%
    22:00 +15°C° 0.5 mm 6 mps 747 mmHg 92%
    23:00 +15°C° 0.5 mm 5 mps 747 mmHg 93%

    24 Septiembre, Martes

    Tiempo Temperatura Precipitaciones Viento Presión Humedad
    00:00 +15°C° 0.5 mm 4 mps 747 mmHg 95%
    01:00 +15°C° 0.7 mm 4 mps 746 mmHg 94%
    02:00 +15°C° 0.7 mm 4 mps 746 mmHg 94%
    03:00 +14°C° 0.7 mm 4 mps 746 mmHg 94%
    04:00 +14°C° 0.6 mm 4 mps 746 mmHg 94%
    05:00 +14°C° 0.6 mm 4 mps 745 mmHg 94%
    06:00 +14°C° 0.6 mm 4 mps 745 mmHg 94%
    07:00 +15°C° 0.4 mm 4 mps 745 mmHg 93%
    08:00 +15°C° 0.4 mm 5 mps 744 mmHg 91%
    09:00 +16°C° 0.4 mm 6 mps 744 mmHg 89%
    10:00 +16°C° 0.8 mm 5 mps 744 mmHg 86%
    11:00 +16°C° 0.8 mm 5 mps 744 mmHg 83%
    12:00 +18°C° 0.8 mm 4 mps 744 mmHg 80%
    13:00 +18°C° 0.6 mm 4 mps 743 mmHg 77%
    14:00 +18°C° 0.6 mm 4 mps 743 mmHg 74%
    15:00 +19°C° 0.6 mm 4 mps 743 mmHg 71%
    16:00 +16°C° 0.6 mm 5 mps 742 mmHg 77%
    17:00 +15°C° 0.6 mm 5 mps 742 mmHg 83%
    18:00 +13°C° 0.6 mm 6 mps 741 mmHg 88%
    19:00 +13°C° 1.1 mm 6 mps 741 mmHg 89%
    20:00 +14°C° 1.1 mm 6 mps 740 mmHg 89%
    21:00 +14°C° 1.1 mm 6 mps 740 mmHg 89%
    22:00 +14°C° 0.4 mm 6 mps 739 mmHg 89%
    23:00 +14°C° 0.4 mm 7 mps 739 mmHg 90%

    25 Septiembre, Miércoles

    Tiempo Temperatura Precipitaciones Viento Presión Humedad
    00:00 +13°C° 0.4 mm 8 mps 739 mmHg 90%
    01:00 +13°C° 1 mm 8 mps 739 mmHg 91%
    02:00 +13°C° 1 mm 8 mps 739 mmHg 92%
    03:00 +13°C° 1 mm 8 mps 739 mmHg 93%
    04:00 +13°C° 0.5 mm 8 mps 739 mmHg 92%
    05:00 +13°C° 0.5 mm 9 mps 740 mmHg 91%
    06:00 +12°C° 0.5 mm 9 mps 740 mmHg 90%
    07:00 +12°C° 0.3 mm 9 mps 740 mmHg 89%
    08:00 +12°C° 0.3 mm 8 mps 741 mmHg 89%
    09:00 +12°C° 0.3 mm 8 mps 741 mmHg 88%
    10:00 +13°C° 0.4 mm 8 mps 742 mmHg 87%
    11:00 +13°C° 0.4 mm 8 mps 742 mmHg 86%
    12:00 +13°C° 0.4 mm 8 mps 743 mmHg 85%
    13:00 +13°C° 0.2 mm 8 mps 743 mmHg 86%
    14:00 +14°C° 0.2 mm 7 mps 743 mmHg 86%
    15:00 +14°C° 0.2 mm 6 mps 744 mmHg 86%
    16:00 +14°C° 0.1 mm 6 mps 744 mmHg 87%
    17:00 +14°C° 0.1 mm 5 mps 744 mmHg 87%
    18:00 +14°C° 0.1 mm 4 mps 744 mmHg 88%
    19:00 +13°C° 0 mm 4 mps 744 mmHg 88%
    20:00 +13°C° 0 mm 3 mps 744 mmHg 88%
    21:00 +12°C° 0 mm 3 mps 744 mmHg 88%
    22:00 +12°C° 0 mm 3 mps 744 mmHg 89%
    23:00 +11°C° 0 mm 3 mps 743 mmHg 90%

    26 Septiembre, Jueves

    Tiempo Temperatura Precipitaciones Viento Presión Humedad
    00:00 +11°C° 0 mm 3 mps 743 mmHg 91%
    01:00 +11°C° 1.1 mm 4 mps 742 mmHg 92%
    02:00 +12°C° 1.1 mm 5 mps 741 mmHg 94%
    03:00 +12°C° 1.1 mm 5 mps 741 mmHg 95%
    04:00 +13°C° 1.1 mm 5 mps 740 mmHg 94%
    05:00 +13°C° 1.1 mm 5 mps 740 mmHg 94%
    06:00 +14°C° 1.1 mm 5 mps 739 mmHg 94%
    07:00 +14°C° 0.4 mm 6 mps 739 mmHg 92%
    08:00 +14°C° 0.4 mm 7 mps 739 mmHg 90%
    09:00 +14°C° 0.4 mm 7 mps 739 mmHg 88%
    10:00 +15°C° 0.4 mm 8 mps 740 mmHg 82%
    11:00 +15°C° 0.4 mm 9 mps 740 mmHg 76%
    12:00 +15°C° 0.4 mm 9 mps 740 mmHg 70%
    13:00 +15°C° 0.2 mm 9 mps 740 mmHg 71%
    14:00 +15°C° 0.2 mm 8 mps 740 mmHg 71%
    15:00 +14°C° 0.2 mm 7 mps 740 mmHg 72%
    16:00 +14°C° 0.6 mm 7 mps 741 mmHg 75%
    17:00 +12°C° 0.6 mm 7 mps 741 mmHg 78%
    18:00 +12°C° 0.6 mm 7 mps 741 mmHg 81%
    19:00 +13°C° 0.6 mm 6 mps 741 mmHg 82%
    20:00 +11°C° 0.6 mm 6 mps 741 mmHg 83%
    21:00 +11°C° 0.6 mm 6 mps 741 mmHg 85%
    22:00 +11°C° 0.5 mm 6 mps 741 mmHg 85%
    23:00 +11°C° 0.5 mm 6 mps 741 mmHg 86%
    Mostrar más